Weather History for Hibbing, MN

Change the Weather History Date:

Wednesday, November 21, 2012

  Actual Average Record
Temperature  
Mean Temperature 34 °F -  
Max Temperature 48 °F 30 °F 69 °F (1996)
Min Temperature 21 °F 13 °F -18 °F (1978)
Degree Days  
Heating Degree Days 30    
Moisture  
Dew Point 27 °F    
Average Humidity 81    
Maximum Humidity 96    
Minimum Humidity 54    
Precipitation  
Precipitation 0.00 in - - ()
Sea Level Pressure  
Sea Level Pressure 29.89 in    
Wind  
Wind Speed 2 mph (SSE)    
Max Wind Speed 6 mph    
Max Gust Speed -    
Visibility 9 miles    
Events      
Averages and records for this station are not official NWS values.
T = Trace of Precipitation, MM = Missing Value Source: NWS Daily Summary

Daily Weather History Graph

Daily Weather History Graph

Search for Another Location

Airport:

Trip Planner

Search our weather history database for the weather conditions in past years. The results will help you decide how hot, cold, wet, or windy it might be!

Date:

Astronomy

Nov. 21, 2012 Rise Set
Actual Time 7:25 AM CST 4:29 PM CST
Civil Twilight 6:51 AM CST 5:03 PM CST
Nautical Twilight 6:13 AM CST 5:40 PM CST
Astronomical Twilight 5:36 AM CST 6:17 PM CST
Moon 1:08 PM CST (11/21) 12:19 AM CST (11/21)
Length of Visible Light 10h 12m
Length of Day
9h 03m
First Quarter, 62% of the Moon is Illuminated
Nov 21
First Quarter
Nov 28
Full
Dec 6
Last Quarter
Dec 13
New
Dec 19
First Quarter

Hourly Weather History & Observations

Time (CST) Temp. Windchill Dew Point Humidity Pressure Visibility Wind Dir Wind Speed Gust Speed Precip Events Conditions
12:53 AM 21.0 °F - 19.0 °F 92% 30.03 in 10.0 mi Calm Calm - N/A   Clear
1:53 AM 21.0 °F 14.6 °F 17.1 °F 85% 30.01 in 10.0 mi SE 4.6 mph - N/A   Clear
2:53 AM 21.9 °F - 19.0 °F 89% 30.00 in 10.0 mi Calm Calm - N/A   Clear
3:53 AM 21.0 °F - 18.0 °F 88% 29.98 in 8.0 mi Calm Calm - N/A   Clear
4:53 AM 21.9 °F - 19.9 °F 92% 29.98 in 8.0 mi Calm Calm - N/A   Clear
5:53 AM 21.0 °F 16.2 °F 18.0 °F 88% 29.97 in 10.0 mi NW 3.5 mph - N/A   Clear
6:53 AM 23.0 °F - 19.9 °F 88% 29.97 in 10.0 mi Calm Calm - N/A   Clear
7:53 AM 26.1 °F - 23.0 °F 88% 29.97 in 7.0 mi Calm Calm - N/A   Clear
8:53 AM 30.0 °F - 27.0 °F 88% 29.97 in 4.0 mi Calm Calm - N/A   Clear
9:53 AM 34.0 °F - 30.0 °F 85% 29.96 in 5.0 mi Calm Calm - N/A   Clear
10:53 AM 37.0 °F 34.5 °F 32.0 °F 82% 29.95 in 7.0 mi South 3.5 mph - N/A   Clear
11:53 AM 41.0 °F - 33.1 °F 73% 29.93 in 10.0 mi Calm Calm - N/A   Clear
12:53 PM 44.1 °F 42.5 °F 33.1 °F 65% 29.91 in 10.0 mi South 3.5 mph - N/A   Clear
1:53 PM 48.0 °F - 34.0 °F 58% 29.88 in 10.0 mi SSE 4.6 mph - N/A   Clear
2:53 PM 48.9 °F - 33.1 °F 54% 29.87 in 10.0 mi SSE 4.6 mph - N/A   Clear
3:53 PM 46.9 °F - 33.1 °F 59% 29.86 in 10.0 mi SSE 3.5 mph - N/A   Clear
4:53 PM 37.9 °F - 30.9 °F 76% 29.86 in 10.0 mi Calm Calm - N/A   Clear
5:53 PM 39.0 °F 34.8 °F 30.9 °F 73% 29.84 in 10.0 mi SE 5.8 mph - N/A   Clear
6:53 PM 36.0 °F 32.1 °F 30.9 °F 82% 29.81 in 10.0 mi SE 4.6 mph - N/A   Clear
7:53 PM 30.9 °F 25.2 °F 28.0 °F 89% 29.80 in 10.0 mi ESE 5.8 mph - N/A   Clear
8:53 PM 36.0 °F 31.1 °F 32.0 °F 86% 29.75 in 10.0 mi SE 5.8 mph - N/A   Clear
9:53 PM 36.0 °F 31.1 °F 32.0 °F 86% 29.71 in 10.0 mi SE 5.8 mph - N/A   Clear
10:53 PM 33.1 °F - 30.9 °F 92% 29.68 in 9.0 mi Calm Calm - N/A   Clear
11:53 PM 28.0 °F - 27.0 °F 96% 29.65 in 4.0 mi Calm Calm - N/A   Clear